Volver al catálogo

OPS 5118

NAVSTAR 6

ActivoNavegaciónHEO
NORAD 11783·PAYLOAD·🇺🇸 United States

Lanzado Apr 26, 1980 desde Vandenberg Space Force Base

Loading…

Próximos Pases (próximas 24 horas)

TLE

ActualizadoSource: Space-Track

Época: Sep 13, 2026, 16:28 UTC

1 11783U 80032A   26256.68634765  .00000019  00000-0  00000-0 0  9999
2 11783  61.8103 245.4116 0554405  51.3159 124.0461  2.03456063343558

Sigue OPS 5118 en tiempo real con AllMySat

Download on the App Store